Terug naar catalogus

FREGAT R/B

LostHEO
NORAD 47720·ROCKET BODY·🇷🇺 Russia

Gelanceerd Feb 28, 2021 vanaf Baikonur Cosmodrome

Loading…

Volgende Passages (komende 24 uur)

TLE

VerouderdSource: Space-Track

Epoch: Jul 24, 2026, 04:00 UTC

1 47720U 21016B   26205.16719837  .00001425  00000-0  13122-2 0  9990
2 47720  63.2584  43.8470 7420163 267.7582  14.2912  1.98933526 39171

Volg FREGAT R/B in realtime met AllMySat

Download on the App Store